SCP
0 0 0 0 0 0 0 0 0 0 0 0 0 0 0 0 0 0 0 0 0 0 0 0 0 0 0 0 0 0 0 0 0 0 0 0 0 0 0 0 0 0 0 0
0 0 0 0 0 0 0 0 0 0 0 0 0 0 0 0 0 0 0 0 0 0 0 0 0 0 0 0 0 0 0 0 0 0 0 0 0 0 0 0 0 0 0 0
0 0 0 0 0 0 0 0 0 0 0 0 0 0 0 0 0 0 0 0 0 0 0 0 0 0 0 0 0 0 0 0 0 0 0 0 0 0 0 0 0 0 0 0
0 0 0 0 0 0 0 0 0 0 0 0 0 0 0 0 0 0 0 0 0 0 0 0 0 0 0 0 0 0 0 0 0 0 0 0 0 0 0 0 0 0 0 0
0 0 0 0 0 0 0 0 0 0 0 0 0 0 0 0 0 0 0 0 0 0 0 0 0 0 0 0 0 0 0 0 0 0 0 0 0 0 0 0 0 0 0 0
0 0 0 0 0 0 0 0 0 0 0 0 0 0 0 0 0 0 0 0 0 0 0 0 0 0 0 0 0 0 0 0 0 0 0 0 0 0 0 0 0 0 0 0
0 0 0 0 0 0 0 0 0 0 0 0 0 0 0 0 0 0 0 0 0 0 0 0 0 0 0 0 0 0 0 0 0 0 0 0 0 0 0 0 0 0 0 0
0 0 0 0 0 0 0 0 0 0 0 0 0 0 0 0 0 0 0 0 0 0 0 0 0 0 0 0 0 0 0 0 0 0 0 0 0 0 0 0 0 0 0 0
0 0 0 0 0 0 0 0 0 0 0 0 0 0 0 0 0 0 0 0 0 0 0 0 0 0 0 0 0 0 0 0 0 0 0 0 0 0 0 0 0 0 0 0
0 0 0 0 0 0 0 0 0 0 0 0 0 0 0 0 0 0 0 0 0 0 0 0 0 0 0 0 0 0 0 0 0 0 0 0 0 0 0 0 0 0 0 0
0 0 0 0 0 0 0 0 0 0 0 0 0 0 0 0 0 0 0 0 0 0 0 0 0 0 0 0 0 0 0 0 0 0 0 0 0 -0 -0 -0 0 0 0 0
0 0 0 0 0 0 0 0 0 0 0 0 0 0 0 0 0 0 0 0 0 0 0 0 0 0 0 0 0 0 0 0 0 0 0 0 -0 -0 -0 -0 -0 -0 -0 -0
0 0 0 0 0 0 0 0 0 0 0 0 0 0 0 0 0 0 0 0 0 0 0 0 0 0 0 0 0 0 0 0 0 0 0 0 0 0 0 0 0 -0 -0 -0
0 0 0 0 0 0 0 0 0 0 0 0 0 0 0 0 0 0 0 0 0 0 0 0 0 0 0 0 0 0 0 0 0 0 0 0 0 0 0 0 0 0 0 0
0 0 0 0 0 0 0 0 0 0 0 0 0 0 0 0 0 0 0 0 0 0 0 0 0 0 0 0 0 0 0 0 0 0 0 0 0 0 0 0 0 0 0 0
0 0 0 0 0 0 0 0 0 0 0 0 0 0 0 0 0 0 0 0 0 0 0 0 0 0 0 0 0 0 0 0 0 0 0 0 0 0 0 0 0 0 0 0
0 0 0 0 0 0 0 0 0 0 0 0 0 0 0 0 0 0 0 0 0 0 0 0 0 0 0 0 0 0 0 0 0 0 0 0 0 0 0 0 0 0 0 0
0 0 0 0 0 0 0 0 0 0 0 0 0 0 0 0 0 0 0 0 0 0 0 0 0 0 0 0 0 0 0 0 0 0 0 0 0 0 0 0 0 0 0 0
0 0 0 0 0 0 0 0 0 0 0 0 0 0 0 0 0 0 0 0 0 0 0 0 0 0 0 0 0 0 0 0 0 0 0 0 0 0 0 0 0 0 0 0
0 0 0 0 0 0 0 0 0 0 0 0 0 0 0 0 0 0 0 0 0 0 0 0 0 0 0 0 0 0 0 0 0 0 0 0 0 0 0 0 0 0 0 0
0 0 0 0 0 0 0 0 0 0 0 0 0 0 0 0 0 0 0 0 0 0 0 0 0 0 0 0 0 0 0 0 0 0 0 0 0 0 0 0 0 0 0 0
0 0 0 0 0 0 0 0 -0 0 0 0 0 0 0 0 0 0 0 0 0 0 0 0 0 0 0 0 0 0 0 0 0 0 0 0 0 0 0 0 0 0 0 0
-0 -0 -0 -0 0 0 0 0 0 0 0 0 0 0 0 0 0 0 0 0 0 0 0 0 0 0 0 0 0 0 0 0 0 0 0 0 0 0 0 0 0 0 0 0
-0 -0 -0 -0 -0 -0 0 0 0 0 0 0 0 0 0 0 0 0 0 0 0 0 0 0 0 0 0 0 0 0 0 0 0 0 0 0 0 0 0 0 0 0 0 0
0 0 0 0 0 0 0 0 0 0 0 0 0 0 0 0 0 0 0 0 0 0 0 0 0 0 0 0 0 0 0 0 0 0 0 0 0 0 0 0 0 0 0 0
0 0 0 0 0 0 0 0 0 0 0 0 0 0 0 0 0 0 0 0 0 0 0 0 0 0 0 0 0 0 0 0 0 0 0 0 0 0 0 0 0 0 0 0
0 0 0 0 0 0 0 0 0 0 0 0 0 0 0 0 0 0 0 0 0 0 0 0 0 0 0 0 0 0 0 0 0 0 0 0 0 0 0 0 0 0 0 0
Wind_Speed
6 7 6 8 10 7 8 9 9 9 8 9 7 7 7 6 5 5 4 3 3 2 2 2 3 3 3 3 3 3 4 4 3 3 4 4 4 4 4 4 4 4 5 4
3 6 7 10 10 7 7 6 7 5 7 6 3 2 2 4 5 5 5 4 3 2 2 1 2 2 2 2 2 3 4 4 4 4 4 4 4 4 4 4 4 5 5 5
4 5 6 8 8 6 5 5 6 6 7 3 3 5 6 6 6 5 5 4 4 4 2 1 1 0 0 0 1 2 3 4 4 5 4 4 4 5 4 4 4 4 4 4
2 3 5 10 6 6 5 4 5 6 6 7 8 7 6 7 7 6 5 5 4 4 3 2 2 1 1 1 1 2 3 3 4 5 5 4 5 4 3 3 3 3 3 4
3 3 7 8 5 5 5 3 4 7 7 7 5 2 3 6 7 7 7 6 5 5 4 3 2 2 1 1 1 2 3 3 3 4 4 4 4 3 2 3 3 3 3 4
4 4 6 9 6 5 5 2 3 6 7 7 7 4 7 7 7 6 5 5 4 4 3 3 3 2 2 1 2 2 3 4 3 4 4 4 4 3 2 3 3 3 3 3
5 6 8 8 4 5 3 9 5 5 6 7 9 9 7 6 7 7 6 6 5 5 4 4 3 3 3 2 3 3 4 4 4 4 4 4 3 2 3 3 3 3 3 3
4 4 9 6 4 7 9 7 6 6 6 7 8 7 7 9 8 8 7 6 6 5 4 4 4 4 4 3 3 4 5 5 4 3 3 3 4 3 3 4 4 3 3 2
8 9 9 6 8 8 8 8 8 7 7 8 8 9 9 9 9 8 7 6 5 5 5 4 4 5 5 4 5 5 5 5 4 4 3 3 4 3 3 3 3 2 2 1
4 6 6 7 6 6 9 10 10 10 9 10 10 11 10 9 8 8 7 6 5 6 6 5 4 5 5 5 5 6 5 4 4 4 3 3 3 3 3 3 3 3 2 1
6 8 7 7 7 8 9 9 9 9 9 12 13 11 12 11 10 8 7 6 6 7 7 6 6 6 5 5 6 5 5 4 4 4 4 3 2 2 3 3 4 4 3 3
9 10 7 8 8 7 8 9 10 10 9 9 13 13 13 12 10 9 8 7 7 7 7 7 7 6 6 6 6 6 5 4 4 3 3 3 3 1 2 1 2 4 5 5
11 10 9 9 8 8 7 9 10 11 11 10 10 12 14 11 11 10 9 9 9 9 8 8 7 7 6 6 7 7 6 5 4 4 4 4 4 4 2 1 1 2 3 5
10 8 7 7 7 7 7 8 8 9 10 10 11 11 13 12 10 12 13 12 11 10 9 9 8 8 7 7 7 7 6 7 6 5 5 5 5 5 4 4 3 3 5 8
13 11 10 8 6 5 5 4 4 6 7 7 8 10 14 15 15 16 14 12 11 10 10 10 9 9 8 8 8 7 6 4 5 5 5 5 5 5 5 5 5 4 3 4
11 9 7 6 5 3 2 1 2 4 6 8 9 11 15 17 16 15 14 14 13 13 12 11 11 10 9 9 8 6 6 9 8 5 5 5 5 5 6 6 6 5 6 6
9 8 7 6 4 3 2 1 2 2 3 4 8 11 12 12 12 13 15 15 15 15 14 13 13 11 10 10 9 7 6 6 9 5 5 5 5 5 6 6 6 7 7 8
7 7 6 5 5 4 3 2 2 2 0 2 4 6 9 13 16 17 17 15 13 12 13 14 13 12 12 11 10 7 6 6 5 6 5 5 5 5 5 6 7 8 6 6
6 5 5 5 4 2 1 1 1 1 1 1 0 4 8 12 15 15 14 14 15 16 16 15 18 15 13 14 13 8 8 7 6 6 6 7 6 5 5 5 6 6 6 5
13 11 10 9 9 7 6 5 4 4 4 3 3 3 5 9 12 14 15 17 17 16 15 15 16 15 14 14 15 9 9 9 8 6 6 6 6 6 6 6 6 6 7 7
12 12 11 9 8 8 8 8 7 7 6 5 5 6 7 8 11 12 13 15 16 15 14 18 15 13 13 13 15 10 10 9 9 8 7 7 7 7 7 7 6 6 7 7
6 7 8 8 7 8 9 9 10 10 9 8 8 8 8 8 9 10 14 14 14 16 14 13 13 15 16 16 11 11 11 11 9 8 8 7 7 8 8 8 7 7 7 7
7 7 9 10 10 10 11 10 11 11 11 11 10 10 9 8 7 8 10 11 10 16 15 12 16 20 21 16 11 12 12 12 11 9 9 8 8 8 8 9 8 7 7 7
9 9 10 10 10 10 11 11 11 10 11 11 10 10 9 7 7 9 9 12 16 17 15 15 21 22 22 13 11 11 12 11 11 10 9 8 8 7 7 7 7 7 7 9
10 10 9 9 8 8 9 10 10 10 10 9 9 9 8 6 7 8 7 10 15 16 13 16 21 22 17 12 12 12 11 11 11 10 9 9 8 8 8 7 7 7 7 7
10 8 7 8 7 7 7 7 7 8 7 8 7 7 6 5 6 5 5 8 13 16 14 12 13 16 13 11 12 12 11 11 12 11 10 9 9 9 8 8 9 7 7 7
9 7 6 6 6 6 6 7 8 8 7 7 7 6 5 5 4 4 4 5 7 11 11 10 10 11 11 11 10 10 10 9 9 9 8 8 7 7 7 8 7 7 7 7
Wind_Direction
222 245 265 278 276 231 195 196 200 232 239 254 247 241 236 221 208 207 202 184 167 127 62 36 30 31 35 39 52 84 97 99 108 111 108 103 96 87 79 78 78 78 84 78
284 274 287 289 279 247 214 198 208 228 252 242 237 214 205 203 204 206 205 197 175 146 109 47 24 17 29 32 42 82 101 103 103 99 94 90 88 83 79 75 76 78 82 79
267 283 315 278 244 210 196 195 185 213 235 202 200 208 206 206 207 205 202 191 179 175 181 213 265 305 308 24 55 81 99 104 106 103 93 87 88 82 79 81 85 86 88 87
237 326 254 250 244 189 180 193 185 194 201 192 202 207 206 197 195 201 198 188 184 183 194 222 236 227 207 110 92 108 109 108 107 107 103 96 92 89 83 82 89 94 92 91
173 228 269 278 249 179 163 225 202 182 196 204 187 135 254 217 194 193 193 188 191 194 195 204 208 197 160 150 142 135 132 131 125 118 117 115 111 107 99 90 84 85 92 91
176 204 242 253 243 163 113 263 245 174 188 188 145 166 245 221 189 183 176 174 182 188 181 184 197 169 142 170 163 165 160 144 131 126 128 135 138 130 113 107 105 95 84 80
205 225 255 253 195 122 157 233 223 186 191 181 186 205 215 177 170 171 172 176 172 167 169 188 181 153 152 169 178 173 144 129 122 125 132 139 136 128 124 112 102 93 86 68
203 221 252 238 163 174 208 207 202 202 198 188 197 192 173 166 168 170 173 178 170 164 179 186 167 152 154 175 170 141 129 123 121 122 128 123 123 114 115 118 109 100 87 60
201 220 237 224 205 206 178 186 203 199 198 175 170 177 177 176 175 179 180 183 173 167 175 179 166 154 163 179 154 134 128 130 129 118 110 119 127 124 111 114 119 119 111 87
247 261 258 250 236 205 190 195 202 197 187 171 178 183 181 179 179 180 180 179 167 156 165 178 175 166 171 172 154 140 143 148 145 134 126 116 114 125 130 140 141 144 150 160
261 266 276 268 246 224 213 210 207 201 188 182 178 179 181 181 182 181 180 178 166 164 174 185 179 174 175 167 152 149 156 160 157 153 149 137 123 132 155 176 178 169 180 178
242 241 230 246 253 238 219 217 212 203 199 186 180 180 180 183 184 180 178 172 167 169 174 179 175 180 182 172 159 156 162 168 167 162 158 152 143 108 45 159 174 175 179 179
232 242 233 240 248 240 225 219 212 203 199 191 185 180 177 180 182 178 175 172 173 175 177 175 175 184 189 180 169 168 173 176 174 170 169 170 169 171 189 280 294 247 215 207
244 243 252 245 242 246 240 232 216 209 205 192 182 178 176 175 174 178 182 183 177 173 175 177 179 191 195 181 175 179 180 185 181 184 185 187 191 192 188 189 213 248 245 233
248 235 230 236 246 254 248 239 223 216 207 197 183 179 178 179 183 188 187 180 173 173 178 180 184 198 196 180 178 182 182 187 190 190 194 197 200 199 201 203 207 215 223 238
242 236 223 216 219 232 262 255 220 220 209 203 195 192 191 189 189 186 183 179 177 183 185 184 191 198 191 184 184 185 188 197 188 191 197 201 204 206 209 208 209 209 213 219
230 226 213 198 188 163 153 168 172 200 211 211 213 206 197 191 187 187 189 189 188 188 186 187 193 195 189 186 185 189 191 202 201 192 197 201 200 203 207 205 205 209 217 212
225 216 191 171 166 155 148 126 91 78 144 238 231 207 198 195 195 197 196 192 189 191 193 193 192 190 191 189 189 191 191 198 200 202 207 210 209 205 201 201 201 203 214 210
35 54 57 63 62 53 32 40 10 323 310 341 220 217 214 211 209 204 196 190 192 199 202 198 193 190 193 196 191 190 192 196 202 211 212 216 216 209 201 198 196 196 194 191
13 22 29 24 21 9 347 341 337 324 318 315 293 273 244 228 218 208 199 199 203 205 198 193 194 196 198 200 196 194 197 198 199 206 210 211 212 214 210 207 201 196 193 194
356 356 360 360 353 341 327 323 319 305 297 291 280 270 262 249 230 214 205 211 214 204 194 190 193 198 199 200 199 198 200 202 203 204 207 210 214 217 216 215 211 203 197 197
327 324 316 311 307 301 298 296 291 288 286 280 274 268 266 260 242 222 213 215 215 199 195 196 199 199 198 199 200 200 202 204 206 206 206 208 210 214 216 215 215 211 203 198
277 268 267 266 264 265 269 272 273 274 274 270 267 262 255 247 236 225 225 222 212 197 196 200 200 198 197 198 201 202 205 207 208 208 208 208 209 210 212 213 211 207 202 199
278 270 262 259 259 261 264 264 264 267 267 266 262 257 254 252 249 237 228 219 210 200 202 203 198 195 195 200 201 204 206 208 210 211 210 210 210 209 210 209 208 205 200 193
286 282 277 274 270 266 266 269 272 271 269 267 262 258 256 244 242 243 228 212 202 197 204 203 195 195 196 201 201 204 206 208 211 211 210 210 211 210 210 208 206 199 191 184
286 282 275 270 272 277 280 281 279 277 273 271 270 264 260 254 246 238 227 215 201 197 201 202 198 199 202 200 201 202 203 206 210 211 210 209 211 210 207 203 195 186 178 170
292 288 286 290 289 287 287 286 283 280 275 268 269 267 260 256 248 230 218 213 207 203 202 196 191 193 196 197 198 200 201 200 201 203 204 205 204 203 197 186 174 165 159 155